Погода в Манакоре

Испания     39°34′29″N   3°12′10″E
темп.,
°C
ветер,
м/с
пор.,
м/с
влажн.,
%
обл.,
%
осадки,
мм/ч
давл.,
гПа
погр.,
м
23 апреля, пт
пт2323:00+12ссв348789 0.0 1018160
02:00+11с34872 0.0 1018107
05:00+11с47890 0.0 1018187
08:00+12ссв37880 0.0 1019316
11:00+16всв45640 0.0 1019861
14:00+18в43583 0.0 10201087
17:00+18всв435638 0.0 10191006
20:00+15св45685 0.0 1020203
24 апреля, сб
сб2423:00+12ссв128598 0.0 102259
02:00+12св2386100 0.0 1021134
05:00+12св3488100 0.0 1020147
08:00+13всв248892 0.0 1020191
11:00+17в5669100 0.0 1020619
14:00+18вюв566014 0.0 1020683
17:00+17в6765100 0.0 1019544
20:00+15в4879100 0.0 1019345
25 апреля, вс
вс2523:00+14всв238099 0.0 101970
02:00+13в47864 0.0 1017149
05:00+14вюв61185100 0.0 1015376
08:00+15всв5108590 0.2 1015419
11:00+17в7116962 0.1 1015486
14:00+18вюв71168100 0.1 1014466
17:00+18вюв7117191 0.0 1012444
20:00+15в612841 0.0 1010330
26 апреля, пн
пн2623:00+15в610900 0.0 1011302
02:00+15в714928 0.0 1006306
05:00+14всв349472 0.1 1007102
08:00+15вюв6109516 0.1 1004280
11:00+19зюз912781 0.0 1003531
14:00+21зюз1215610 0.0 1004686
17:00+20зюз1013590 0.0 1003794
20:00+17зюз710725 0.0 1004403
27 апреля, вт
вт2723:00+14зюз512913 0.0 1007276
02:00+14зюз410935 0.0 1005233
05:00+14зюз379593 0.0 1004141
08:00+15зюз49916 0.0 1004245
11:00+21зюз8105311 0.0 1004753
14:00+22зюз911475 0.0 10041092
17:00+22зюз912483 0.0 10041009
20:00+18зюз58660 0.0 1004320